SLRQ

Details ICAO SLRQ (RBQ)
Name Rurrenabaque
Region Bolivia
Timezone America/La_Paz (UTC-4.0)
Plans Departing 0
Arriving 1
Stats Elevation 899 ft / 274 m (AMSL)
Location -14.486945° -67.455139°
Runways 2
Magnetic Variation 9.161° W
Sunrise 2018-05-27 10:47:52 UTC / 2018-05-27 06:47:52 Local
Sunset 2018-05-27 22:09:00 UTC / 2018-05-27 18:09:00 Local
Advertisement - Login to hide

Runways

ID Width Length Bearing (true) Bearing (mag) Surface Threshold Offset Overrun Length
13 101 ft / 31 m 7,061 ft / 2,152 m 128.00° 137.16° Concrete 0 ft / 0 m 0 ft / 0 m
18 61 ft / 19 m 4,268 ft / 1,301 m 178.00° 187.16° Concrete 0 ft / 0 m 0 ft / 0 m
31 101 ft / 31 m 7,061 ft / 2,152 m 308.00° 317.16° Concrete 0 ft / 0 m 0 ft / 0 m
36 61 ft / 19 m 4,268 ft / 1,301 m 358.00° 7.16° Concrete 0 ft / 0 m 0 ft / 0 m

Map

Weather


0- 5 10 15 20 25 30 35+ Temperature / ° C

Clouds and Precipitation
Forecast for 2018-05-27 12:00 UTC. Updated 5 hours ago

Ground ~20,000 ft ~40,000 ft Winds

METAR

SLRQ 271600Z 00000KT 9999 NSC 30/24 Q1013

TAF

Not found
Warning: Do not use this data for real-world aviation or navigation. No guarantee of current accuracy is given.